PWSweather.com
Personal Weather Stations
Station Observations
KILASHKU1
Ashkum, IL

Ashkum, IL

Lat: 40.8779862, Lon: -87.846552

Elevation: 626

Station Type: Davis Vantage Pro 2

Latest ConditionsUpdated 1:18:00 AM CST Saturday, Jan 18, 2020
Currently Today's Max Today's Min Today's Average
Temperature 31.4°F-0.3°C 31.4°F-0.3°C 30.7°F-0.7°C 31.1°F-0.5°C
Dew Point 29.9°F-1.2°C 29.9°F-1.2°C 28.9°F-1.7°C 29.5°F-1.4°C
Winds 4.0 mph SE6.4 kmh SE 5.0 mph -8.0 kmh - - 4.0 mph 6.4 kmh
Wind Gusts 8.0 mph12.9 kmh 10.0 mph16.1 kmh - -
Humidity 94% 94% 93% 94%
Pressure 30.06 in1017.9 mb 30.15 in1021.0 mb 30.05 in1017.6 mb -
Hour Temp Dew Point Humidity Winds Wind Gusts Pressure Precip Precip Rate Daily Precip Total
01:18 AM 31.4°F-0.3°C 29.9°F-1.2°C 94% 4.0 mph SE6.4 kmh SE 8.0 mph12.9 kmh 30.06 in1017.9 mb 0.00 in0.0 mm 0.00 in0.0 mm 0.00 in0.0 mm
01:16 AM 31.4°F-0.3°C 29.9°F-1.2°C 94% 4.0 mph SE6.4 kmh SE 7.0 mph11.3 kmh 30.05 in1017.6 mb 0.00 in0.0 mm 0.00 in0.0 mm 0.00 in0.0 mm
01:14 AM 31.4°F-0.3°C 29.9°F-1.2°C 94% 4.0 mph SE6.4 kmh SE 7.0 mph11.3 kmh 30.06 in1017.9 mb 0.00 in0.0 mm 0.00 in0.0 mm 0.00 in0.0 mm
01:12 AM 31.4°F-0.3°C 29.9°F-1.2°C 94% 4.0 mph SE6.4 kmh SE 7.0 mph11.3 kmh 30.06 in1017.9 mb 0.00 in0.0 mm 0.00 in0.0 mm 0.00 in0.0 mm
01:10 AM 31.4°F-0.3°C 29.9°F-1.2°C 94% 4.0 mph SE6.4 kmh SE 7.0 mph11.3 kmh 30.06 in1017.9 mb 0.00 in0.0 mm 0.00 in0.0 mm 0.00 in0.0 mm
01:08 AM 31.4°F-0.3°C 29.9°F-1.2°C 94% 4.0 mph SE6.4 kmh SE 7.0 mph11.3 kmh 30.06 in1017.9 mb 0.00 in0.0 mm 0.00 in0.0 mm 0.00 in0.0 mm
01:06 AM 31.4°F-0.3°C 29.9°F-1.2°C 94% 4.0 mph SE6.4 kmh SE 10.0 mph16.1 kmh 30.06 in1017.9 mb 0.00 in0.0 mm 0.00 in0.0 mm 0.00 in0.0 mm
01:04 AM 31.4°F-0.3°C 29.9°F-1.2°C 94% 4.0 mph SE6.4 kmh SE 10.0 mph16.1 kmh 30.06 in1017.9 mb 0.00 in0.0 mm 0.00 in0.0 mm 0.00 in0.0 mm
01:02 AM 31.4°F-0.3°C 29.9°F-1.2°C 94% 4.0 mph SE6.4 kmh SE 10.0 mph16.1 kmh 30.06 in1017.9 mb 0.00 in0.0 mm 0.00 in0.0 mm 0.00 in0.0 mm
01:00 AM 31.4°F-0.3°C 29.9°F-1.2°C 94% 4.0 mph ESE6.4 kmh ESE 10.0 mph16.1 kmh 30.06 in1017.9 mb 0.00 in0.0 mm 0.00 in0.0 mm 0.00 in0.0 mm
12:58 AM 31.4°F-0.3°C 29.9°F-1.2°C 94% 4.0 mph SE6.4 kmh SE 10.0 mph16.1 kmh 30.06 in1017.9 mb 0.00 in0.0 mm 0.00 in0.0 mm 0.00 in0.0 mm
12:56 AM 31.4°F-0.3°C 29.9°F-1.2°C 94% 4.0 mph ESE6.4 kmh ESE 8.0 mph12.9 kmh 30.06 in1017.9 mb 0.00 in0.0 mm 0.00 in0.0 mm 0.00 in0.0 mm
12:54 AM 31.4°F-0.3°C 29.9°F-1.2°C 94% 4.0 mph ESE6.4 kmh ESE 8.0 mph12.9 kmh 30.06 in1017.9 mb 0.00 in0.0 mm 0.00 in0.0 mm 0.00 in0.0 mm
12:52 AM 31.4°F-0.3°C 29.9°F-1.2°C 94% 4.0 mph SE6.4 kmh SE 8.0 mph12.9 kmh 30.07 in1018.3 mb 0.00 in0.0 mm 0.00 in0.0 mm 0.00 in0.0 mm
12:50 AM 31.4°F-0.3°C 29.9°F-1.2°C 94% 4.0 mph SE6.4 kmh SE 10.0 mph16.1 kmh 30.08 in1018.6 mb 0.00 in0.0 mm 0.00 in0.0 mm 0.00 in0.0 mm
12:48 AM 31.4°F-0.3°C 29.9°F-1.2°C 94% 5.0 mph SE8.0 kmh SE 10.0 mph16.1 kmh 30.08 in1018.6 mb 0.00 in0.0 mm 0.00 in0.0 mm 0.00 in0.0 mm
12:46 AM 31.4°F-0.3°C 29.9°F-1.2°C 94% 5.0 mph SE8.0 kmh SE 10.0 mph16.1 kmh 30.08 in1018.6 mb 0.00 in0.0 mm 0.00 in0.0 mm 0.00 in0.0 mm
12:44 AM 31.3°F-0.4°C 29.8°F-1.2°C 94% 4.0 mph SE6.4 kmh SE 10.0 mph16.1 kmh 30.09 in1019.0 mb 0.00 in0.0 mm 0.00 in0.0 mm 0.00 in0.0 mm
12:42 AM 31.2°F-0.4°C 29.7°F-1.3°C 94% 4.0 mph SE6.4 kmh SE 10.0 mph16.1 kmh 30.09 in1019.0 mb 0.00 in0.0 mm 0.00 in0.0 mm 0.00 in0.0 mm
12:40 AM 31.1°F-0.5°C 29.6°F-1.3°C 94% 3.0 mph SE4.8 kmh SE 8.0 mph12.9 kmh 30.10 in1019.3 mb 0.00 in0.0 mm 0.00 in0.0 mm 0.00 in0.0 mm
12:38 AM 31.1°F-0.5°C 29.6°F-1.3°C 94% 3.0 mph SE4.8 kmh SE 8.0 mph12.9 kmh 30.10 in1019.3 mb 0.00 in0.0 mm 0.00 in0.0 mm 0.00 in0.0 mm
12:36 AM 31.0°F-0.6°C 29.5°F-1.4°C 94% 3.0 mph SE4.8 kmh SE 7.0 mph11.3 kmh 30.10 in1019.3 mb 0.00 in0.0 mm 0.00 in0.0 mm 0.00 in0.0 mm
12:34 AM 31.0°F-0.6°C 29.5°F-1.4°C 94% 3.0 mph SE4.8 kmh SE 7.0 mph11.3 kmh 30.11 in1019.6 mb 0.00 in0.0 mm 0.00 in0.0 mm 0.00 in0.0 mm
12:32 AM 31.0°F-0.6°C 29.5°F-1.4°C 94% 4.0 mph SE6.4 kmh SE 7.0 mph11.3 kmh 30.11 in1019.6 mb 0.00 in0.0 mm 0.00 in0.0 mm 0.00 in0.0 mm
12:30 AM 30.9°F-0.6°C 29.4°F-1.4°C 94% 4.0 mph SE6.4 kmh SE 7.0 mph11.3 kmh 30.11 in1019.6 mb 0.00 in0.0 mm 0.00 in0.0 mm 0.00 in0.0 mm
12:28 AM 30.9°F-0.6°C 29.4°F-1.4°C 94% 4.0 mph SE6.4 kmh SE 7.0 mph11.3 kmh 30.11 in1019.6 mb 0.00 in0.0 mm 0.00 in0.0 mm 0.00 in0.0 mm
12:26 AM 30.8°F-0.7°C 29.3°F-1.5°C 94% 4.0 mph SE6.4 kmh SE 7.0 mph11.3 kmh 30.11 in1019.6 mb 0.00 in0.0 mm 0.00 in0.0 mm 0.00 in0.0 mm
12:24 AM 30.8°F-0.7°C 29.3°F-1.5°C 94% 4.0 mph SE6.4 kmh SE 7.0 mph11.3 kmh 30.11 in1019.6 mb 0.00 in0.0 mm 0.00 in0.0 mm 0.00 in0.0 mm
12:22 AM 30.8°F-0.7°C 29.3°F-1.5°C 94% 4.0 mph SE6.4 kmh SE 7.0 mph11.3 kmh 30.11 in1019.6 mb 0.00 in0.0 mm 0.00 in0.0 mm 0.00 in0.0 mm
12:20 AM 30.8°F-0.7°C 29.0°F-1.7°C 93% 4.0 mph ESE6.4 kmh ESE 8.0 mph12.9 kmh 30.12 in1020.0 mb 0.00 in0.0 mm 0.00 in0.0 mm 0.00 in0.0 mm
12:18 AM 30.8°F-0.7°C 29.3°F-1.5°C 94% 4.0 mph ESE6.4 kmh ESE 8.0 mph12.9 kmh 30.12 in1020.0 mb 0.00 in0.0 mm 0.00 in0.0 mm 0.00 in0.0 mm
12:16 AM 30.8°F-0.7°C 29.0°F-1.7°C 93% 4.0 mph SE6.4 kmh SE 8.0 mph12.9 kmh 30.12 in1020.0 mb 0.00 in0.0 mm 0.00 in0.0 mm 0.00 in0.0 mm
12:14 AM 30.8°F-0.7°C 29.0°F-1.7°C 93% 4.0 mph SE6.4 kmh SE 8.0 mph12.9 kmh 30.12 in1020.0 mb 0.00 in0.0 mm 0.00 in0.0 mm 0.00 in0.0 mm
12:12 AM 30.7°F-0.7°C 28.9°F-1.7°C 93% 4.0 mph SE6.4 kmh SE 8.0 mph12.9 kmh 30.13 in1020.3 mb 0.00 in0.0 mm 0.00 in0.0 mm 0.00 in0.0 mm
12:10 AM 30.7°F-0.7°C 28.9°F-1.7°C 93% 4.0 mph SE6.4 kmh SE 8.0 mph12.9 kmh 30.13 in1020.3 mb 0.00 in0.0 mm 0.00 in0.0 mm 0.00 in0.0 mm
12:08 AM 30.8°F-0.7°C 29.0°F-1.7°C 93% 4.0 mph SE6.4 kmh SE 8.0 mph12.9 kmh 30.13 in1020.3 mb 0.00 in0.0 mm 0.00 in0.0 mm 0.00 in0.0 mm
12:06 AM 30.8°F-0.7°C 29.0°F-1.7°C 93% 4.0 mph ESE6.4 kmh ESE 8.0 mph12.9 kmh 30.13 in1020.3 mb 0.00 in0.0 mm 0.00 in0.0 mm 0.00 in0.0 mm
12:04 AM 30.8°F-0.7°C 29.0°F-1.7°C 93% 4.0 mph ESE6.4 kmh ESE 8.0 mph12.9 kmh 30.14 in1020.7 mb 0.00 in0.0 mm 0.00 in0.0 mm 0.00 in0.0 mm
12:02 AM 30.8°F-0.7°C 29.0°F-1.7°C 93% 4.0 mph SE6.4 kmh SE 8.0 mph12.9 kmh 30.14 in1020.7 mb 0.00 in0.0 mm 0.00 in0.0 mm 0.00 in0.0 mm
12:00 AM 30.8°F-0.7°C 29.0°F-1.7°C 93% 4.0 mph SE6.4 kmh SE 8.0 mph12.9 kmh 30.15 in1021.0 mb 0.00 in0.0 mm 0.00 in0.0 mm 0.00 in0.0 mm